CST,Max TemperatureF,Mean TemperatureF,Min TemperatureF,Max Dew PointF,MeanDew PointF,Min DewpointF,Max Humidity, Mean Humidity, Min Humidity, Max Sea Level PressureIn, Mean Sea Level PressureIn, Min Sea Level PressureIn, Max VisibilityMiles, Mean VisibilityMiles, Min VisibilityMiles, Max Wind SpeedMPH, Mean Wind SpeedMPH, Max Gust SpeedMPH,PrecipitationIn, CloudCover, Events, WindDirDegrees
2013-1-1,67,58,49,64,55,44,93,87,80,30.19,30.02,29.90,10,6,1,21,11,25,3.97,8,Rain-Thunderstorm,356
2013-1-2,49,47,44,43,40,39,92,84,76,30.31,30.24,30.15,10,10,7,18,11,23,0.04,8,Rain,11
2013-1-3,56,50,43,39,36,32,83,64,45,30.44,30.37,30.29,10,10,9,16,9,22,0.00,5,,20
2013-1-4,50,46,41,36,34,31,70,60,50,30.53,30.43,30.37,10,10,10,16,9,20,T,8,,38
2013-1-5,48,46,44,45,42,38,93,79,65,30.39,30.30,30.24,10,6,1,15,8,18,1.30,8,Rain,27
2013-1-6,59,52,44,44,42,39,93,73,53,30.34,30.29,30.25,10,10,3,20,11,24,0.01,4,Rain,20
2013-1-7,58,48,38,45,41,36,92,74,55,30.35,30.25,30.15,10,10,6,18,8,21,0.00,4,,61
2013-1-8,64,57,50,61,54,44,93,82,71,30.14,30.07,30.01,10,10,5,28,11,35,0.31,7,Rain,95
2013-1-9,69,65,61,66,63,59,93,92,90,30.14,30.04,29.96,10,6,1,23,9,31,3.67,7,Rain-Thunderstorm,108
2013-1-10,66,60,53,64,60,51,93,90,86,30.12,30.05,29.92,10,8,1,20,5,24,1.17,7,Rain-Thunderstorm,264
2013-1-11,72,59,46,70,53,45,100,87,42,30.09,30.02,29.93,10,4,0,10,2,18,0.00,5,Fog,135
2013-1-12,77,74,70,70,69,68,97,88,79,30.00,29.91,29.84,10,8,5,22,13,30,0.00,7,,162
2013-1-13,73,60,47,70,54,43,93,87,80,30.14,29.96,29.77,10,9,4,28,13,35,0.05,7,Rain,344
2013-1-14,48,44,39,43,39,36,89,83,76,30.20,30.14,30.06,10,8,2,22,14,31,0.07,8,Rain,31
2013-1-15,42,39,36,38,36,33,92,87,82,30.13,30.09,30.04,10,7,1,17,10,22,0.65,8,Rain,7
2013-1-16,46,40,34,37,34,30,92,79,65,30.27,30.17,30.09,10,9,3,17,7,24,0.08,7,Rain,347
2013-1-17,60,46,31,36,31,27,92,62,32,30.49,30.38,30.28,10,10,10,15,6,20,0.00,0,,324
2013-1-18,60,47,34,37,33,24,92,59,26,30.58,30.48,30.41,10,10,10,13,4,16,0.00,0,,70
2013-1-19,65,49,33,46,40,31,96,70,44,30.41,30.32,30.25,10,8,0,8,2,12,0.00,1,Fog,168
2013-1-20,69,54,38,50,41,37,96,68,39,30.31,30.24,30.15,10,5,0,8,2,12,0.00,2,Fog,174
2013-1-21,69,55,41,50,43,39,96,68,40,30.26,30.20,30.15,10,5,0,10,2,13,0.00,1,Fog,76
2013-1-22,67,54,41,48,43,37,93,68,42,30.38,30.32,30.26,10,7,0,12,4,14,0.00,0,Fog,89
2013-1-23,71,58,44,56,50,43,100,77,53,30.41,30.34,30.30,10,6,0,13,4,18,0.00,1,Fog,169
2013-1-24,72,60,48,61,54,46,100,84,68,30.35,30.27,30.22,10,6,0,14,5,18,0.00,5,Fog,185
2013-1-25,75,65,55,63,58,54,93,77,60,30.25,30.19,30.14,10,7,0,16,6,24,0.00,4,Fog,192
2013-1-26,76,65,54,64,56,53,100,77,54,30.25,30.20,30.17,10,4,0,13,4,17,0.00,4,Fog,164
2013-1-27,76,66,55,64,58,54,100,82,64,30.23,30.18,30.14,10,7,1,21,9,28,0.00,3,,138
2013-1-28,76,70,64,67,65,62,93,83,73,30.21,30.13,30.07,10,9,7,20,10,23,0.00,7,,148
2013-1-29,79,74,69,70,68,66,90,81,71,30.06,29.85,29.71,10,10,8,26,15,37,0.00,8,,171
2013-1-30,72,56,40,67,38,28,90,60,29,30.24,29.95,29.75,10,10,5,28,12,39,0.06,5,Rain,309
2013-1-31,62,48,34,41,33,20,92,56,20,30.36,30.30,30.22,10,10,7,15,4,22,0.00,0,,214